Time,TemperatureF,DewpointF,PressureIn,WindDirection,WindDirectionDegrees,WindSpeedMPH,WindSpeedGustMPH,Humidity,HourlyPrecipIn,Conditions,Clouds,dailyrainin,SoftwareType,DateUTC
2013-06-21 00:03:00,57.4,50.2,30.38,SW,214,3.0,6.0,77,0.00,,,0.04,meteohub,2013-06-21 07:03:00,
2013-06-21 00:08:00,57.4,49.8,30.38,WSW,247,2.0,7.0,76,0.00,,,0.00,meteohub,2013-06-21 07:08:00,
2013-06-21 00:13:00,57.4,49.5,30.38,South,171,2.0,7.0,75,0.00,,,0.00,meteohub,2013-06-21 07:13:00,
2013-06-21 00:18:00,57.4,49.5,30.38,West,267,0.0,7.0,75,0.00,,,0.00,meteohub,2013-06-21 07:18:00,
2013-06-21 00:23:00,57.4,49.5,30.38,WSW,246,2.0,5.0,75,0.00,,,0.00,meteohub,2013-06-21 07:23:00,
2013-06-21 00:29:00,57.2,49.3,30.38,WSW,245,2.0,5.0,75,0.00,,,0.00,meteohub,2013-06-21 07:29:00,
2013-06-21 00:34:00,57.2,49.3,30.38,WSW,251,4.0,5.0,75,0.00,,,0.00,meteohub,2013-06-21 07:34:00,
2013-06-21 00:39:00,57.0,49.5,30.38,SW,229,3.0,5.0,76,0.00,,,0.00,meteohub,2013-06-21 07:39:00,
2013-06-21 00:44:00,57.0,49.5,30.39,WSW,245,3.0,8.0,76,0.00,,,0.00,meteohub,2013-06-21 07:44:00,
2013-06-21 00:49:00,57.0,49.5,30.39,SSW,192,2.0,8.0,76,0.00,,,0.00,meteohub,2013-06-21 07:49:00,
2013-06-21 00:54:00,56.8,49.3,30.39,West,273,3.0,8.0,76,0.00,,,0.00,meteohub,2013-06-21 07:54:00,
2013-06-21 00:59:00,56.8,49.6,30.38,West,262,4.0,8.0,77,0.00,,,0.00,meteohub,2013-06-21 07:59:00,
2013-06-21 01:04:00,56.7,49.5,30.38,SW,235,4.0,7.0,77,0.00,,,0.00,meteohub,2013-06-21 08:04:00,
2013-06-21 01:09:00,56.7,49.8,30.39,WSW,253,4.0,7.0,78,0.00,,,0.00,meteohub,2013-06-21 08:09:00,
2013-06-21 01:14:00,56.5,49.6,30.39,West,273,2.0,8.0,78,0.00,,,0.00,meteohub,2013-06-21 08:14:00,
2013-06-21 01:19:00,56.5,49.3,30.39,West,269,4.0,11.0,77,0.00,,,0.00,meteohub,2013-06-21 08:19:00,
2013-06-21 01:24:00,56.3,49.1,30.39,West,259,4.0,11.0,77,0.00,,,0.00,meteohub,2013-06-21 08:24:00,
2013-06-21 01:29:00,56.3,49.5,30.39,WSW,250,5.0,11.0,78,0.00,,,0.00,meteohub,2013-06-21 08:29:00,
2013-06-21 01:35:00,56.1,49.3,30.39,WSW,254,3.0,9.0,78,0.00,,,0.00,meteohub,2013-06-21 08:35:00,
2013-06-21 01:40:00,55.9,49.5,30.39,SW,229,5.0,8.0,79,0.00,,,0.00,meteohub,2013-06-21 08:40:00,
2013-06-21 01:45:00,55.8,49.6,30.39,WSW,252,5.0,7.0,80,0.00,,,0.00,meteohub,2013-06-21 08:45:00,
2013-06-21 01:50:00,55.6,49.5,30.39,WSW,248,6.0,6.0,80,0.00,,,0.00,meteohub,2013-06-21 08:50:00,
2013-06-21 01:55:00,55.4,49.3,30.39,SW,217,3.0,8.0,80,0.00,,,0.00,meteohub,2013-06-21 08:55:00,
2013-06-21 02:00:00,55.2,49.1,30.39,WSW,242,1.0,9.0,80,0.00,,,0.00,meteohub,2013-06-21 09:00:00,
2013-06-21 02:05:00,55.2,49.1,30.39,WSW,237,4.0,9.0,80,0.00,,,0.00,meteohub,2013-06-21 09:05:00,
2013-06-21 02:10:00,55.0,49.3,30.39,West,267,3.0,9.0,81,0.00,,,0.00,meteohub,2013-06-21 09:10:00,
2013-06-21 02:15:00,55.0,49.3,30.39,WSW,250,3.0,9.0,81,0.00,,,0.00,meteohub,2013-06-21 09:15:00,
2013-06-21 02:20:00,54.9,49.1,30.39,West,274,4.0,9.0,81,0.00,,,0.00,meteohub,2013-06-21 09:20:00,
2013-06-21 02:25:00,54.9,49.1,30.39,West,263,3.0,8.0,81,0.00,,,0.00,meteohub,2013-06-21 09:25:00,
2013-06-21 02:30:00,54.9,49.1,30.39,SW,233,3.0,8.0,81,0.00,,,0.00,meteohub,2013-06-21 09:30:00,
2013-06-21 02:35:00,54.9,49.1,30.39,West,265,4.0,8.0,81,0.00,,,0.00,meteohub,2013-06-21 09:35:00,
2013-06-21 02:41:00,54.9,48.7,30.39,WNW,300,7.0,9.0,80,0.00,,,0.00,meteohub,2013-06-21 09:41:00,
2013-06-21 02:46:00,54.9,48.7,30.38,SSW,209,7.0,9.0,80,0.00,,,0.00,meteohub,2013-06-21 09:46:00,
2013-06-21 02:51:00,54.9,48.7,30.38,SW,230,6.0,10.0,80,0.00,,,0.00,meteohub,2013-06-21 09:51:00,
2013-06-21 02:56:00,55.0,48.9,30.38,SW,226,4.0,10.0,80,0.00,,,0.00,meteohub,2013-06-21 09:56:00,
2013-06-21 03:01:00,55.0,48.9,30.38,WSW,249,2.0,10.0,80,0.00,,,0.00,meteohub,2013-06-21 10:01:00,
2013-06-21 03:06:00,54.9,48.7,30.38,SW,221,4.0,10.0,80,0.00,,,0.00,meteohub,2013-06-21 10:06:00,
2013-06-21 03:11:00,55.0,48.9,30.38,WSW,250,4.0,10.0,80,0.00,,,0.00,meteohub,2013-06-21 10:11:00,
2013-06-21 03:16:00,55.0,48.9,30.39,SW,234,4.0,9.0,80,0.00,,,0.00,meteohub,2013-06-21 10:16:00,
2013-06-21 03:21:00,55.0,48.6,30.39,WSW,245,3.0,10.0,79,0.00,,,0.00,meteohub,2013-06-21 10:21:00,
2013-06-21 03:26:00,55.0,48.6,30.38,SSW,208,3.0,10.0,79,0.00,,,0.00,meteohub,2013-06-21 10:26:00,
2013-06-21 03:31:00,55.0,48.6,30.38,SW,229,1.0,10.0,79,0.00,,,0.00,meteohub,2013-06-21 10:31:00,
2013-06-21 03:36:00,55.0,48.6,30.38,West,276,1.0,7.0,79,0.00,,,0.00,meteohub,2013-06-21 10:36:00,
2013-06-21 03:41:00,54.9,48.7,30.38,SW,226,1.0,6.0,80,0.00,,,0.00,meteohub,2013-06-21 10:41:00,
2013-06-21 03:47:00,54.9,48.7,30.38,SSW,207,7.0,7.0,80,0.00,,,0.00,meteohub,2013-06-21 10:47:00,
2013-06-21 03:52:00,54.9,48.7,30.38,SW,232,6.0,9.0,80,0.00,,,0.00,meteohub,2013-06-21 10:52:00,
2013-06-21 03:57:00,54.9,48.7,30.38,SW,232,4.0,9.0,80,0.00,,,0.00,meteohub,2013-06-21 10:57:00,
2013-06-21 04:02:00,54.7,48.6,30.37,West,272,5.0,11.0,80,0.00,,,0.00,meteohub,2013-06-21 11:02:00,
2013-06-21 04:07:00,54.9,48.7,30.37,SW,219,4.0,14.0,80,0.00,,,0.00,meteohub,2013-06-21 11:07:00,
2013-06-21 04:12:00,54.9,48.6,30.37,SW,214,5.0,14.0,79,0.00,,,0.00,meteohub,2013-06-21 11:12:00,
2013-06-21 04:17:00,54.9,48.6,30.37,SW,229,2.0,14.0,79,0.00,,,0.00,meteohub,2013-06-21 11:17:00,
2013-06-21 04:22:00,54.9,48.6,30.37,SSW,206,2.0,13.0,79,0.00,,,0.00,meteohub,2013-06-21 11:22:00,
2013-06-21 04:27:00,54.9,48.6,30.37,WNW,290,1.0,9.0,79,0.00,,,0.00,meteohub,2013-06-21 11:27:00,
2013-06-21 04:32:00,55.0,48.6,30.38,WNW,283,0.0,11.0,79,0.00,,,0.00,meteohub,2013-06-21 11:32:00,
2013-06-21 04:37:00,55.0,48.6,30.38,NNE,24,4.0,11.0,79,0.00,,,0.00,meteohub,2013-06-21 11:37:00,
2013-06-21 04:42:00,55.0,48.6,30.38,SSW,207,5.0,11.0,79,0.00,,,0.00,meteohub,2013-06-21 11:42:00,
2013-06-21 04:47:00,54.9,48.6,30.38,SW,227,3.0,13.0,79,0.00,,,0.00,meteohub,2013-06-21 11:47:00,
2013-06-21 04:53:00,54.9,48.6,30.38,West,281,1.0,13.0,79,0.00,,,0.00,meteohub,2013-06-21 11:53:00,
2013-06-21 04:58:00,54.9,48.6,30.38,SW,224,2.0,13.0,79,0.00,,,0.00,meteohub,2013-06-21 11:58:00,
2013-06-21 05:03:00,54.9,48.6,30.38,NW,310,1.0,11.0,79,0.00,,,0.00,meteohub,2013-06-21 12:03:00,
2013-06-21 05:08:00,54.9,48.6,30.38,WNW,300,2.0,8.0,79,0.00,,,0.00,meteohub,2013-06-21 12:08:00,
2013-06-21 05:13:00,54.9,48.2,30.38,SSW,210,1.0,8.0,78,0.00,,,0.00,meteohub,2013-06-21 12:13:00,
2013-06-21 05:18:00,54.9,48.2,30.38,SSE,159,2.0,7.0,78,0.00,,,0.00,meteohub,2013-06-21 12:18:00,
2013-06-21 05:23:00,55.0,48.4,30.38,ENE,78,0.0,7.0,78,0.00,,,0.00,meteohub,2013-06-21 12:23:00,
2013-06-21 05:28:00,54.9,48.6,30.38,SE,140,0.0,5.0,79,0.00,,,0.00,meteohub,2013-06-21 12:28:00,
2013-06-21 05:33:00,54.9,48.6,30.38,WSW,249,1.0,5.0,79,0.00,,,0.00,meteohub,2013-06-21 12:33:00,
2013-06-21 05:38:00,54.9,48.7,30.38,NW,317,3.0,8.0,80,0.00,,,0.00,meteohub,2013-06-21 12:38:00,
2013-06-21 05:43:00,54.9,48.6,30.38,WSW,250,3.0,10.0,79,0.00,,,0.00,meteohub,2013-06-21 12:43:00,
2013-06-21 05:48:00,54.9,48.7,30.38,West,269,3.0,11.0,80,0.00,,,0.00,meteohub,2013-06-21 12:48:00,
2013-06-21 05:53:00,54.9,48.7,30.38,West,273,8.0,13.0,80,0.00,,,0.00,meteohub,2013-06-21 12:53:00,
2013-06-21 05:59:00,54.9,48.7,30.38,West,265,3.0,13.0,80,0.00,,,0.00,meteohub,2013-06-21 12:59:00,
2013-06-21 06:04:00,55.0,48.9,30.38,SW,217,6.0,15.0,80,0.00,,,0.00,meteohub,2013-06-21 13:04:00,
2013-06-21 06:09:00,55.2,49.1,30.38,WNW,295,3.0,15.0,80,0.00,,,0.00,meteohub,2013-06-21 13:09:00,
2013-06-21 06:14:00,55.0,48.9,30.38,West,263,2.0,15.0,80,0.00,,,0.00,meteohub,2013-06-21 13:14:00,
2013-06-21 06:19:00,55.0,48.9,30.39,West,261,12.0,14.0,80,0.00,,,0.00,meteohub,2013-06-21 13:19:00,
2013-06-21 06:24:00,55.0,48.9,30.40,WSW,238,4.0,14.0,80,0.00,,,0.00,meteohub,2013-06-21 13:24:00,
2013-06-21 06:29:00,55.0,48.6,30.40,WSW,242,5.0,14.0,79,0.00,,,0.00,meteohub,2013-06-21 13:29:00,
2013-06-21 06:34:00,55.0,48.9,30.39,SSW,200,7.0,14.0,80,0.00,,,0.00,meteohub,2013-06-21 13:34:00,
2013-06-21 06:39:00,55.0,48.6,30.39,SSW,194,5.0,11.0,79,0.00,,,0.00,meteohub,2013-06-21 13:39:00,
2013-06-21 06:44:00,55.2,48.6,30.39,West,269,5.0,12.0,78,0.00,,,0.00,meteohub,2013-06-21 13:44:00,
2013-06-21 06:49:00,55.6,48.6,30.39,SW,225,6.0,14.0,77,0.00,,,0.00,meteohub,2013-06-21 13:49:00,
2013-06-21 06:54:00,55.9,48.6,30.39,WSW,242,5.0,14.0,76,0.00,,,0.00,meteohub,2013-06-21 13:54:00,
2013-06-21 07:00:00,56.1,48.7,30.39,WSW,250,7.0,13.0,76,0.00,,,0.00,meteohub,2013-06-21 14:00:00,
2013-06-21 07:05:00,56.3,48.6,30.39,West,275,7.0,13.0,75,0.00,,,0.00,meteohub,2013-06-21 14:05:00,
2013-06-21 07:10:00,56.3,48.9,30.40,SW,233,6.0,13.0,76,0.00,,,0.00,meteohub,2013-06-21 14:10:00,
2013-06-21 07:15:00,56.3,48.9,30.40,SW,230,10.0,13.0,76,0.00,,,0.00,meteohub,2013-06-21 14:15:00,
2013-06-21 07:20:00,56.1,48.7,30.40,South,184,6.0,13.0,76,0.00,,,0.00,meteohub,2013-06-21 14:20:00,
2013-06-21 07:25:00,56.1,48.4,30.40,SW,219,3.0,13.0,75,0.00,,,0.00,meteohub,2013-06-21 14:25:00,
2013-06-21 07:31:00,56.1,48.4,30.41,South,190,4.0,13.0,75,0.00,,,0.00,meteohub,2013-06-21 14:31:00,
2013-06-21 07:36:00,56.1,48.4,30.41,South,183,4.0,8.0,75,0.00,,,0.00,meteohub,2013-06-21 14:36:00,
2013-06-21 07:41:00,56.3,48.6,30.41,WSW,240,5.0,11.0,75,0.00,,,0.00,meteohub,2013-06-21 14:41:00,
2013-06-21 07:46:00,56.5,48.4,30.42,West,264,4.0,11.0,74,0.00,,,0.00,meteohub,2013-06-21 14:46:00,
2013-06-21 07:51:00,56.5,48.4,30.42,SSW,202,4.0,11.0,74,0.00,,,0.00,meteohub,2013-06-21 14:51:00,
2013-06-21 07:56:00,56.7,48.7,30.42,SW,232,6.0,9.0,75,0.00,,,0.00,meteohub,2013-06-21 14:56:00,
2013-06-21 08:01:00,56.7,48.4,30.42,West,262,4.0,9.0,74,0.00,,,0.00,meteohub,2013-06-21 15:01:00,
2013-06-21 08:07:00,56.7,48.7,30.41,NNW,328,7.0,11.0,75,0.00,,,0.00,meteohub,2013-06-21 15:07:00,
2013-06-21 08:12:00,56.7,48.7,30.42,West,273,10.0,13.0,75,0.00,,,0.00,meteohub,2013-06-21 15:12:00,
2013-06-21 08:17:00,56.7,49.1,30.42,WSW,251,6.0,15.0,76,0.00,,,0.00,meteohub,2013-06-21 15:17:00,
2013-06-21 08:22:00,56.7,49.5,30.42,WSW,237,6.0,15.0,77,0.00,,,0.00,meteohub,2013-06-21 15:22:00,
2013-06-21 08:27:00,56.8,49.6,30.42,SW,221,2.0,15.0,77,0.00,,,0.00,meteohub,2013-06-21 15:27:00,
2013-06-21 08:32:00,57.0,49.5,30.42,WSW,240,5.0,12.0,76,0.00,,,0.00,meteohub,2013-06-21 15:32:00,
2013-06-21 08:37:00,57.2,49.3,30.42,SW,235,3.0,15.0,75,0.00,,,0.00,meteohub,2013-06-21 15:37:00,
2013-06-21 08:43:00,57.7,50.2,30.42,WNW,285,4.0,15.0,76,0.00,,,0.00,meteohub,2013-06-21 15:43:00,
2013-06-21 08:48:00,58.3,49.6,30.42,West,269,9.0,15.0,73,0.00,,,0.00,meteohub,2013-06-21 15:48:00,
2013-06-21 08:53:00,58.8,50.2,30.42,WSW,252,2.0,14.0,73,0.00,,,0.00,meteohub,2013-06-21 15:53:00,
2013-06-21 08:58:00,59.0,50.0,30.42,SW,234,4.0,13.0,72,0.00,,,0.00,meteohub,2013-06-21 15:58:00,
2013-06-21 09:03:00,59.4,50.0,30.42,SW,219,9.0,13.0,71,0.00,,,0.00,meteohub,2013-06-21 16:03:00,
2013-06-21 09:08:00,59.5,50.2,30.42,SW,221,8.0,12.0,71,0.00,,,0.00,meteohub,2013-06-21 16:08:00,
2013-06-21 09:13:00,60.1,50.2,30.42,SW,222,6.0,12.0,70,0.00,,,0.00,meteohub,2013-06-21 16:13:00,
2013-06-21 09:18:00,60.1,50.7,30.42,WNW,288,4.0,12.0,71,0.00,,,0.00,meteohub,2013-06-21 16:18:00,
2013-06-21 09:23:00,60.3,50.9,30.41,WNW,296,2.0,15.0,71,0.00,,,0.00,meteohub,2013-06-21 16:23:00,
2013-06-21 09:29:00,61.0,50.7,30.41,West,275,5.0,15.0,69,0.00,,,0.00,meteohub,2013-06-21 16:29:00,
2013-06-21 09:34:00,61.2,50.2,30.41,SW,236,9.0,15.0,67,0.00,,,0.00,meteohub,2013-06-21 16:34:00,
2013-06-21 09:39:00,61.2,50.5,30.41,WNW,284,4.0,13.0,68,0.00,,,0.00,meteohub,2013-06-21 16:39:00,
2013-06-21 09:44:00,61.2,49.6,30.42,SSW,200,7.0,13.0,66,0.00,,,0.00,meteohub,2013-06-21 16:44:00,
2013-06-21 09:49:00,60.6,49.6,30.41,WSW,246,12.0,13.0,67,0.00,,,0.00,meteohub,2013-06-21 16:49:00,
2013-06-21 09:55:00,61.0,49.5,30.41,WSW,245,6.0,17.0,66,0.00,,,0.00,meteohub,2013-06-21 16:55:00,
2013-06-21 10:00:00,61.2,49.3,30.41,SSW,199,7.0,17.0,65,0.00,,,0.00,meteohub,2013-06-21 17:00:00,
2013-06-21 10:05:00,61.2,49.3,30.41,SW,221,6.0,17.0,65,0.00,,,0.00,meteohub,2013-06-21 17:05:00,
2013-06-21 10:11:00,61.5,48.7,30.41,WSW,252,6.0,15.0,63,0.00,,,0.00,meteohub,2013-06-21 17:11:00,
2013-06-21 10:16:00,61.7,48.9,30.40,WSW,238,11.0,14.0,63,0.00,,,0.00,meteohub,2013-06-21 17:16:00,
2013-06-21 10:21:00,62.1,48.9,30.41,WNW,287,7.0,14.0,62,0.00,,,0.00,meteohub,2013-06-21 17:21:00,
2013-06-21 10:27:00,62.4,48.7,30.41,West,262,6.0,14.0,61,0.00,,,0.00,meteohub,2013-06-21 17:27:00,
2013-06-21 10:32:00,63.0,49.3,30.40,West,269,3.0,14.0,61,0.00,,,0.00,meteohub,2013-06-21 17:32:00,
2013-06-21 10:37:00,63.1,49.1,30.40,NW,312,7.0,14.0,60,0.00,,,0.00,meteohub,2013-06-21 17:37:00,
2013-06-21 10:42:00,63.0,48.4,30.40,West,270,13.0,13.0,59,0.00,,,0.00,meteohub,2013-06-21 17:42:00,
2013-06-21 10:46:00,62.8,48.7,30.40,SSW,205,7.0,16.0,60,0.00,,,0.00,meteohub,2013-06-21 17:46:00,
2013-06-21 10:47:00,62.8,48.7,30.40,SW,236,6.0,16.0,60,0.00,,,0.00,meteohub,2013-06-21 17:47:00,
2013-06-21 10:48:00,63.0,48.9,30.40,WNW,302,4.0,16.0,60,0.00,,,0.00,meteohub,2013-06-21 17:48:00,
2013-06-21 10:52:00,63.1,48.6,30.40,SW,214,3.0,17.0,59,0.00,,,0.00,meteohub,2013-06-21 17:52:00,
2013-06-21 10:57:00,63.5,48.4,30.40,SW,221,9.0,17.0,58,0.00,,,0.00,meteohub,2013-06-21 17:57:00,
2013-06-21 11:02:00,63.3,49.3,30.40,SSW,202,5.0,15.0,60,0.00,,,0.00,meteohub,2013-06-21 18:02:00,
2013-06-21 11:07:00,64.0,49.8,30.40,WSW,238,11.0,15.0,60,0.00,,,0.00,meteohub,2013-06-21 18:07:00,
2013-06-21 11:12:00,64.0,49.5,30.40,WNW,283,9.0,18.0,59,0.00,,,0.00,meteohub,2013-06-21 18:12:00,
2013-06-21 11:17:00,64.0,49.5,30.40,WSW,240,7.0,18.0,59,0.00,,,0.00,meteohub,2013-06-21 18:17:00,
2013-06-21 11:22:00,64.0,48.6,30.40,WSW,254,6.0,18.0,57,0.00,,,0.00,meteohub,2013-06-21 18:22:00,
2013-06-21 11:23:00,64.0,48.6,30.40,SW,225,13.0,18.0,57,0.00,,,0.00,meteohub,2013-06-21 18:23:00,
2013-06-21 11:24:00,64.0,48.9,30.40,SW,226,9.0,18.0,58,0.00,,,0.00,meteohub,2013-06-21 18:24:00,
2013-06-21 11:25:00,64.0,48.6,30.40,SW,226,13.0,21.0,57,0.00,,,0.00,meteohub,2013-06-21 18:25:00,
2013-06-21 11:26:00,64.0,48.6,30.40,SW,219,6.0,21.0,57,0.00,,,0.00,meteohub,2013-06-21 18:26:00,
2013-06-21 11:29:00,64.0,48.9,30.40,WSW,250,6.0,21.0,58,0.00,,,0.00,meteohub,2013-06-21 18:29:00,
2013-06-21 11:34:00,64.2,49.1,30.40,WSW,242,10.0,21.0,58,0.00,,,0.00,meteohub,2013-06-21 18:34:00,
2013-06-21 11:39:00,64.6,48.9,30.40,WSW,244,7.0,21.0,57,0.00,,,0.00,meteohub,2013-06-21 18:39:00,
2013-06-21 11:46:00,64.6,48.9,30.40,SW,225,7.0,18.0,57,0.00,,,0.00,meteohub,2013-06-21 18:46:00,
2013-06-21 11:48:00,64.9,48.9,30.40,SW,214,14.0,18.0,56,0.00,,,0.00,meteohub,2013-06-21 18:48:00,
2013-06-21 11:49:00,64.9,48.9,30.40,WNW,286,5.0,18.0,56,0.00,,,0.00,meteohub,2013-06-21 18:49:00,
2013-06-21 11:50:00,65.1,49.1,30.40,WSW,248,5.0,18.0,56,0.00,,,0.00,meteohub,2013-06-21 18:50:00,
2013-06-21 11:51:00,65.1,49.1,30.40,WSW,248,5.0,18.0,56,0.00,,,0.00,meteohub,2013-06-21 18:51:00,
2013-06-21 11:56:00,65.1,48.6,30.40,WSW,238,14.0,18.0,55,0.00,,,0.00,meteohub,2013-06-21 18:56:00,
2013-06-21 12:01:00,64.9,49.3,30.40,WNW,292,7.0,18.0,57,0.00,,,0.00,meteohub,2013-06-21 19:01:00,
2013-06-21 12:07:00,65.3,48.7,30.39,SW,230,15.0,18.0,55,0.00,,,0.00,meteohub,2013-06-21 19:07:00,
2013-06-21 12:12:00,64.9,48.4,30.40,WNW,288,9.0,19.0,55,0.00,,,0.00,meteohub,2013-06-21 19:12:00,
2013-06-21 12:17:00,64.9,47.8,30.39,WSW,244,8.0,19.0,54,0.00,,,0.00,meteohub,2013-06-21 19:17:00,
2013-06-21 12:22:00,65.3,47.7,30.39,SW,229,11.0,19.0,53,0.00,,,0.00,meteohub,2013-06-21 19:22:00,
2013-06-21 12:26:00,65.7,48.6,30.39,SW,226,4.0,19.0,54,0.00,,,0.00,meteohub,2013-06-21 19:26:00,
2013-06-21 12:32:00,66.2,49.1,30.39,SW,226,4.0,19.0,54,0.00,,,0.00,meteohub,2013-06-21 19:32:00,
2013-06-21 12:37:00,66.6,48.4,30.39,SW,222,9.0,17.0,52,0.00,,,0.00,meteohub,2013-06-21 19:37:00,
2013-06-21 12:42:00,66.6,48.4,30.39,WSW,242,12.0,15.0,52,0.00,,,0.00,meteohub,2013-06-21 19:42:00,
2013-06-21 12:47:00,66.6,48.9,30.39,WSW,237,5.0,17.0,53,0.00,,,0.00,meteohub,2013-06-21 19:47:00,
2013-06-21 12:49:00,66.7,49.1,30.39,WNW,284,11.0,17.0,53,0.00,,,0.00,meteohub,2013-06-21 19:49:00,
2013-06-21 12:54:00,67.1,48.4,30.39,WSW,238,7.0,17.0,51,0.00,,,0.00,meteohub,2013-06-21 19:54:00,
2013-06-21 12:59:00,67.3,47.5,30.39,SW,226,10.0,17.0,49,0.00,,,0.00,meteohub,2013-06-21 19:59:00,
2013-06-21 13:04:00,66.9,48.7,30.39,WSW,238,4.0,16.0,52,0.00,,,0.00,meteohub,2013-06-21 20:04:00,
2013-06-21 13:09:00,67.3,48.6,30.39,NW,304,5.0,16.0,51,0.00,,,0.00,meteohub,2013-06-21 20:09:00,
2013-06-21 13:16:00,66.9,48.7,30.39,West,272,7.0,16.0,52,0.00,,,0.00,meteohub,2013-06-21 20:16:00,
2013-06-21 13:17:00,67.3,49.6,30.39,WSW,249,9.0,16.0,53,0.00,,,0.00,meteohub,2013-06-21 20:17:00,
2013-06-21 13:22:00,67.3,48.6,30.39,SW,222,6.0,16.0,51,0.00,,,0.00,meteohub,2013-06-21 20:22:00,
2013-06-21 13:27:00,67.5,49.3,30.38,WSW,256,6.0,16.0,52,0.00,,,0.00,meteohub,2013-06-21 20:27:00,
2013-06-21 13:32:00,67.8,49.1,30.38,WSW,240,10.0,16.0,51,0.00,,,0.00,meteohub,2013-06-21 20:32:00,
2013-06-21 13:38:00,67.8,48.6,30.38,West,259,4.0,16.0,50,0.00,,,0.00,meteohub,2013-06-21 20:38:00,
2013-06-21 13:46:00,67.8,50.0,30.38,WNW,302,10.0,16.0,53,0.00,,,0.00,meteohub,2013-06-21 20:46:00,
2013-06-21 13:52:00,68.2,49.3,30.38,WSW,240,7.0,14.0,51,0.00,,,0.00,meteohub,2013-06-21 20:52:00,
2013-06-21 13:57:00,68.4,49.5,30.38,WSW,246,4.0,16.0,51,0.00,,,0.00,meteohub,2013-06-21 20:57:00,
2013-06-21 14:02:00,67.6,48.4,30.38,West,271,5.0,16.0,50,0.00,,,0.00,meteohub,2013-06-21 21:02:00,
2013-06-21 14:07:00,67.3,49.6,30.38,SW,226,8.0,16.0,53,0.00,,,0.00,meteohub,2013-06-21 21:07:00,
2013-06-21 14:12:00,67.3,49.6,30.38,WSW,242,8.0,16.0,53,0.00,,,0.00,meteohub,2013-06-21 21:12:00,
2013-06-21 14:17:00,67.8,49.1,30.38,West,260,10.0,16.0,51,0.00,,,0.00,meteohub,2013-06-21 21:17:00,
2013-06-21 14:22:00,67.6,48.9,30.38,WSW,253,6.0,17.0,51,0.00,,,0.00,meteohub,2013-06-21 21:22:00,
2013-06-21 14:27:00,67.6,49.5,30.38,WNW,288,14.0,17.0,52,0.00,,,0.00,meteohub,2013-06-21 21:27:00,
2013-06-21 14:32:00,67.8,49.6,30.38,West,270,6.0,17.0,52,0.00,,,0.00,meteohub,2013-06-21 21:32:00,
2013-06-21 14:37:00,67.8,49.1,30.38,WSW,248,5.0,17.0,51,0.00,,,0.00,meteohub,2013-06-21 21:37:00,
2013-06-21 14:42:00,67.3,49.6,30.38,West,261,6.0,18.0,53,0.00,,,0.00,meteohub,2013-06-21 21:42:00,
2013-06-21 14:48:00,67.5,49.8,30.38,WSW,245,10.0,18.0,53,0.00,,,0.00,meteohub,2013-06-21 21:48:00,
2013-06-21 14:54:00,67.5,49.3,30.38,West,264,4.0,18.0,52,0.00,,,0.00,meteohub,2013-06-21 21:54:00,
2013-06-21 14:59:00,67.5,49.8,30.38,WNW,295,9.0,15.0,53,0.00,,,0.00,meteohub,2013-06-21 21:59:00,
2013-06-21 15:04:00,68.2,50.4,30.38,WSW,256,7.0,18.0,53,0.00,,,0.00,meteohub,2013-06-21 22:04:00,
2013-06-21 15:09:00,68.2,50.4,30.38,WSW,240,4.0,18.0,53,0.00,,,0.00,meteohub,2013-06-21 22:09:00,
2013-06-21 15:14:00,68.2,49.3,30.38,West,264,7.0,18.0,51,0.00,,,0.00,meteohub,2013-06-21 22:14:00,
2013-06-21 15:19:00,68.4,50.0,30.38,WNW,295,8.0,16.0,52,0.00,,,0.00,meteohub,2013-06-21 22:19:00,
2013-06-21 15:25:00,68.5,49.6,30.38,SW,227,11.0,16.0,51,0.00,,,0.00,meteohub,2013-06-21 22:25:00,
2013-06-21 15:30:00,68.5,49.6,30.38,West,277,3.0,17.0,51,0.00,,,0.00,meteohub,2013-06-21 22:30:00,
2013-06-21 15:35:00,69.3,50.9,30.38,SE,144,7.0,19.0,52,0.00,,,0.00,meteohub,2013-06-21 22:35:00,
2013-06-21 15:40:00,69.3,49.3,30.38,WSW,256,12.0,19.0,49,0.00,,,0.00,meteohub,2013-06-21 22:40:00,
2013-06-21 15:45:00,69.1,49.6,30.38,WSW,248,11.0,19.0,50,0.00,,,0.00,meteohub,2013-06-21 22:45:00,
2013-06-21 15:50:00,68.5,49.6,30.38,NW,317,3.0,18.0,51,0.00,,,0.00,meteohub,2013-06-21 22:50:00,
2013-06-21 15:55:00,68.4,50.0,30.37,SW,234,6.0,18.0,52,0.00,,,0.00,meteohub,2013-06-21 22:55:00,
2013-06-21 16:00:00,68.5,49.6,30.38,SW,226,6.0,20.0,51,0.00,,,0.00,meteohub,2013-06-21 23:00:00,
2013-06-21 16:05:00,68.5,50.2,30.38,West,268,6.0,20.0,52,0.00,,,0.00,meteohub,2013-06-21 23:05:00,
2013-06-21 16:10:00,68.5,49.6,30.37,SSW,202,6.0,14.0,51,0.00,,,0.00,meteohub,2013-06-21 23:10:00,
2013-06-21 16:15:00,68.4,49.5,30.37,West,264,10.0,16.0,51,0.00,,,0.00,meteohub,2013-06-21 23:15:00,
2013-06-21 16:20:00,68.4,49.5,30.37,SW,222,10.0,16.0,51,0.00,,,0.00,meteohub,2013-06-21 23:20:00,
2013-06-21 16:26:00,68.5,49.6,30.37,West,261,9.0,16.0,51,0.00,,,0.00,meteohub,2013-06-21 23:26:00,
2013-06-21 16:31:00,68.4,49.5,30.37,WSW,240,9.0,16.0,51,0.00,,,0.00,meteohub,2013-06-21 23:31:00,
2013-06-21 16:36:00,68.4,50.0,30.37,WSW,238,12.0,15.0,52,0.00,,,0.00,meteohub,2013-06-21 23:36:00,
2013-06-21 16:41:00,68.5,49.6,30.37,WSW,248,10.0,15.0,51,0.00,,,0.00,meteohub,2013-06-21 23:41:00,
2013-06-21 16:46:00,68.4,49.5,30.37,SW,227,5.0,16.0,51,0.00,,,0.00,meteohub,2013-06-21 23:46:00,
2013-06-21 16:51:00,69.1,49.6,30.37,West,273,4.0,16.0,50,0.00,,,0.00,meteohub,2013-06-21 23:51:00,
2013-06-21 16:56:00,68.7,49.3,30.37,SW,230,6.0,16.0,50,0.00,,,0.00,meteohub,2013-06-21 23:56:00,
2013-06-21 17:01:00,68.7,48.7,30.37,West,272,4.0,16.0,49,0.00,,,0.00,meteohub,2013-06-22 00:01:00,
2013-06-21 17:06:00,68.5,49.1,30.37,SW,227,5.0,16.0,50,0.00,,,0.00,meteohub,2013-06-22 00:06:00,
2013-06-21 17:11:00,68.7,49.3,30.36,SW,227,10.0,16.0,50,0.00,,,0.00,meteohub,2013-06-22 00:11:00,
2013-06-21 17:16:00,69.1,50.2,30.36,West,263,5.0,15.0,51,0.00,,,0.00,meteohub,2013-06-22 00:16:00,
2013-06-21 17:22:00,69.3,50.4,30.36,West,271,3.0,15.0,51,0.00,,,0.00,meteohub,2013-06-22 00:22:00,
2013-06-21 17:27:00,69.1,49.6,30.36,WSW,240,5.0,17.0,50,0.00,,,0.00,meteohub,2013-06-22 00:27:00,
2013-06-21 17:32:00,68.7,49.3,30.36,WSW,250,5.0,17.0,50,0.00,,,0.00,meteohub,2013-06-22 00:32:00,
2013-06-21 17:37:00,68.7,49.8,30.36,WSW,251,11.0,17.0,51,0.00,,,0.00,meteohub,2013-06-22 00:37:00,
2013-06-21 17:42:00,68.7,49.3,30.36,WNW,291,10.0,16.0,50,0.00,,,0.00,meteohub,2013-06-22 00:42:00,
2013-06-21 17:47:00,68.7,49.8,30.36,West,265,2.0,16.0,51,0.00,,,0.00,meteohub,2013-06-22 00:47:00,
2013-06-21 17:52:00,69.1,50.7,30.35,WSW,237,7.0,20.0,52,0.00,,,0.00,meteohub,2013-06-22 00:52:00,
2013-06-21 17:57:00,68.9,50.0,30.35,SW,225,10.0,20.0,51,0.00,,,0.00,meteohub,2013-06-22 00:57:00,
2013-06-21 18:02:00,68.9,50.0,30.35,WNW,292,6.0,15.0,51,0.00,,,0.00,meteohub,2013-06-22 01:02:00,
2013-06-21 18:07:00,68.7,50.4,30.35,SW,219,12.0,15.0,52,0.00,,,0.00,meteohub,2013-06-22 01:07:00,
2013-06-21 18:13:00,68.5,50.2,30.35,WNW,298,4.0,16.0,52,0.00,,,0.00,meteohub,2013-06-22 01:13:00,
2013-06-21 18:18:00,68.4,50.0,30.35,WSW,244,6.0,16.0,52,0.00,,,0.00,meteohub,2013-06-22 01:18:00,
2013-06-21 18:23:00,68.5,50.7,30.35,WNW,286,8.0,17.0,53,0.00,,,0.00,meteohub,2013-06-22 01:23:00,
2013-06-21 18:28:00,68.5,50.7,30.35,WSW,245,7.0,17.0,53,0.00,,,0.00,meteohub,2013-06-22 01:28:00,
2013-06-21 18:33:00,68.5,50.2,30.35,SW,215,7.0,17.0,52,0.00,,,0.00,meteohub,2013-06-22 01:33:00,
2013-06-21 18:38:00,68.7,50.4,30.35,WSW,250,1.0,14.0,52,0.00,,,0.00,meteohub,2013-06-22 01:38:00,
2013-06-21 18:43:00,68.7,50.4,30.35,West,281,4.0,14.0,52,0.00,,,0.00,meteohub,2013-06-22 01:43:00,
2013-06-21 18:48:00,68.7,50.4,30.35,SW,234,6.0,14.0,52,0.00,,,0.00,meteohub,2013-06-22 01:48:00,
2013-06-21 18:53:00,68.4,50.5,30.35,WSW,245,7.0,14.0,53,0.00,,,0.00,meteohub,2013-06-22 01:53:00,
2013-06-21 18:58:00,68.2,50.9,30.35,WSW,250,3.0,17.0,54,0.00,,,0.00,meteohub,2013-06-22 01:58:00,
2013-06-21 19:03:00,68.2,50.4,30.35,West,277,10.0,17.0,53,0.00,,,0.00,meteohub,2013-06-22 02:03:00,
2013-06-21 19:08:00,67.8,50.0,30.35,SW,219,7.0,17.0,53,0.00,,,0.00,meteohub,2013-06-22 02:08:00,
2013-06-21 19:13:00,67.8,50.5,30.35,WSW,253,7.0,17.0,54,0.00,,,0.00,meteohub,2013-06-22 02:13:00,
2013-06-21 19:18:00,67.8,50.5,30.35,SW,233,7.0,17.0,54,0.00,,,0.00,meteohub,2013-06-22 02:18:00,
2013-06-21 19:24:00,67.8,50.5,30.35,WNW,294,4.0,18.0,54,0.00,,,0.00,meteohub,2013-06-22 02:24:00,
2013-06-21 19:29:00,67.8,50.5,30.35,WSW,254,7.0,18.0,54,0.00,,,0.00,meteohub,2013-06-22 02:29:00,
2013-06-21 19:34:00,67.5,50.7,30.35,WSW,243,7.0,18.0,55,0.00,,,0.00,meteohub,2013-06-22 02:34:00,
2013-06-21 19:39:00,67.5,51.3,30.35,West,260,3.0,15.0,56,0.00,,,0.00,meteohub,2013-06-22 02:39:00,
2013-06-21 19:44:00,67.3,51.1,30.35,WNW,303,4.0,15.0,56,0.00,,,0.00,meteohub,2013-06-22 02:44:00,
2013-06-21 19:49:00,66.9,50.7,30.36,WSW,250,9.0,13.0,56,0.00,,,0.00,meteohub,2013-06-22 02:49:00,
2013-06-21 19:54:00,66.7,51.1,30.35,West,261,5.0,16.0,57,0.00,,,0.00,meteohub,2013-06-22 02:54:00,
2013-06-21 19:59:00,66.4,51.1,30.35,SSE,150,3.0,16.0,58,0.00,,,0.00,meteohub,2013-06-22 02:59:00,
2013-06-21 20:04:00,66.2,50.9,30.35,West,262,4.0,16.0,58,0.00,,,0.00,meteohub,2013-06-22 03:04:00,
2013-06-21 20:09:00,66.0,51.3,30.35,WSW,245,8.0,14.0,59,0.00,,,0.00,meteohub,2013-06-22 03:09:00,
2013-06-21 20:14:00,65.8,51.1,30.36,SSW,200,4.0,12.0,59,0.00,,,0.00,meteohub,2013-06-22 03:14:00,
2013-06-21 20:19:00,65.5,51.3,30.36,WNW,297,6.0,12.0,60,0.00,,,0.00,meteohub,2013-06-22 03:19:00,
2013-06-21 20:25:00,64.9,50.7,30.35,WSW,256,4.0,14.0,60,0.00,,,0.00,meteohub,2013-06-22 03:25:00,
2013-06-21 20:30:00,64.6,50.9,30.36,WSW,245,6.0,15.0,61,0.00,,,0.00,meteohub,2013-06-22 03:30:00,
2013-06-21 20:35:00,64.2,50.9,30.36,WSW,246,7.0,15.0,62,0.00,,,0.00,meteohub,2013-06-22 03:35:00,
2013-06-21 20:40:00,64.0,50.7,30.36,West,274,2.0,15.0,62,0.00,,,0.00,meteohub,2013-06-22 03:40:00,
2013-06-21 20:45:00,63.9,51.1,30.36,SSW,200,4.0,14.0,63,0.00,,,0.00,meteohub,2013-06-22 03:45:00,
2013-06-21 20:50:00,63.7,50.9,30.36,SW,234,4.0,14.0,63,0.00,,,0.00,meteohub,2013-06-22 03:50:00,
2013-06-21 20:55:00,63.3,50.9,30.36,West,265,3.0,12.0,64,0.00,,,0.00,meteohub,2013-06-22 03:55:00,
2013-06-21 21:00:00,63.3,50.9,30.36,WSW,256,5.0,13.0,64,0.00,,,0.00,meteohub,2013-06-22 04:00:00,
2013-06-21 21:01:00,63.1,50.7,30.36,WSW,253,4.0,13.0,64,0.00,,,0.00,meteohub,2013-06-22 04:01:00,
2013-06-21 21:02:00,63.1,50.7,30.36,SW,234,9.0,13.0,64,0.00,,,0.00,meteohub,2013-06-22 04:02:00,
2013-06-21 21:04:00,63.1,51.3,30.36,WSW,238,8.0,13.0,65,0.00,,,0.00,meteohub,2013-06-22 04:04:00,
2013-06-21 21:09:00,63.0,51.1,30.36,SW,219,2.0,13.0,65,0.00,,,0.00,meteohub,2013-06-22 04:09:00,
2013-06-21 21:14:00,63.0,51.1,30.36,West,264,5.0,13.0,65,0.00,,,0.00,meteohub,2013-06-22 04:14:00,
2013-06-21 21:19:00,62.8,51.3,30.36,WNW,299,5.0,12.0,66,0.00,,,0.00,meteohub,2013-06-22 04:19:00,
2013-06-21 21:24:00,62.8,51.3,30.36,WSW,241,6.0,11.0,66,0.00,,,0.00,meteohub,2013-06-22 04:24:00,
2013-06-21 21:29:00,62.6,51.1,30.37,WSW,253,5.0,11.0,66,0.00,,,0.00,meteohub,2013-06-22 04:29:00,
2013-06-21 21:35:00,62.4,50.9,30.36,WSW,248,4.0,11.0,66,0.00,,,0.00,meteohub,2013-06-22 04:35:00,
2013-06-21 21:40:00,62.4,51.3,30.37,SSW,196,4.0,13.0,67,0.00,,,0.00,meteohub,2013-06-22 04:40:00,
2013-06-21 21:45:00,62.4,51.3,30.37,SW,233,4.0,13.0,67,0.00,,,0.00,meteohub,2013-06-22 04:45:00,
2013-06-21 21:50:00,62.2,51.1,30.38,SSW,208,5.0,13.0,67,0.00,,,0.00,meteohub,2013-06-22 04:50:00,
2013-06-21 21:55:00,62.1,51.4,30.38,SSW,200,3.0,11.0,68,0.00,,,0.00,meteohub,2013-06-22 04:55:00,
2013-06-21 22:00:00,62.1,51.4,30.38,SSW,211,4.0,11.0,68,0.00,,,0.00,meteohub,2013-06-22 05:00:00,
2013-06-21 22:05:00,61.9,51.3,30.38,WSW,237,3.0,11.0,68,0.00,,,0.00,meteohub,2013-06-22 05:05:00,
2013-06-21 22:10:00,61.9,51.3,30.38,SW,225,4.0,11.0,68,0.00,,,0.00,meteohub,2013-06-22 05:10:00,
2013-06-21 22:15:00,61.7,51.1,30.38,SW,222,4.0,10.0,68,0.00,,,0.00,meteohub,2013-06-22 05:15:00,
2013-06-21 22:20:00,61.5,50.9,30.38,SE,146,5.0,10.0,68,0.00,,,0.00,meteohub,2013-06-22 05:20:00,
2013-06-21 22:25:00,61.5,50.9,30.38,SSW,205,6.0,10.0,68,0.00,,,0.00,meteohub,2013-06-22 05:25:00,
2013-06-21 22:30:00,61.5,50.9,30.38,South,188,4.0,8.0,68,0.00,,,0.00,meteohub,2013-06-22 05:30:00,
2013-06-21 22:35:00,61.5,50.9,30.38,SW,230,1.0,9.0,68,0.00,,,0.00,meteohub,2013-06-22 05:35:00,
2013-06-21 22:41:00,61.2,50.9,30.38,SE,141,2.0,9.0,69,0.00,,,0.00,meteohub,2013-06-22 05:41:00,
2013-06-21 22:46:00,61.0,51.1,30.38,South,187,2.0,9.0,70,0.00,,,0.00,meteohub,2013-06-22 05:46:00,
2013-06-21 22:51:00,60.8,50.9,30.38,WSW,250,5.0,7.0,70,0.00,,,0.00,meteohub,2013-06-22 05:51:00,
2013-06-21 22:56:00,60.6,50.7,30.38,SW,225,5.0,8.0,70,0.00,,,0.00,meteohub,2013-06-22 05:56:00,
2013-06-21 23:01:00,60.6,50.7,30.38,SSE,153,0.0,8.0,70,0.00,,,0.00,meteohub,2013-06-22 06:01:00,
2013-06-21 23:06:00,60.4,51.1,30.38,WSW,256,4.0,8.0,71,0.00,,,0.00,meteohub,2013-06-22 06:06:00,
2013-06-21 23:11:00,60.4,51.1,30.38,SSW,210,1.0,7.0,71,0.00,,,0.00,meteohub,2013-06-22 06:11:00,
2013-06-21 23:16:00,60.3,50.9,30.38,SW,235,4.0,8.0,71,0.00,,,0.00,meteohub,2013-06-22 06:16:00,
2013-06-21 23:21:00,60.3,51.3,30.38,SW,225,3.0,10.0,72,0.00,,,0.00,meteohub,2013-06-22 06:21:00,
2013-06-21 23:26:00,60.1,51.1,30.38,SSW,205,2.0,10.0,72,0.00,,,0.00,meteohub,2013-06-22 06:26:00,
2013-06-21 23:31:00,60.1,51.1,30.38,South,171,2.0,10.0,72,0.00,,,0.00,meteohub,2013-06-22 06:31:00,
2013-06-21 23:36:00,59.9,50.9,30.38,SSE,157,2.0,9.0,72,0.00,,,0.00,meteohub,2013-06-22 06:36:00,
2013-06-21 23:42:00,59.7,51.1,30.38,SSW,194,3.0,7.0,73,0.00,,,0.00,meteohub,2013-06-22 06:42:00,
2013-06-21 23:47:00,59.7,51.1,30.38,WSW,242,5.0,7.0,73,0.00,,,0.00,meteohub,2013-06-22 06:47:00,
2013-06-21 23:52:00,59.9,51.3,30.38,SW,221,2.0,9.0,73,0.00,,,0.00,meteohub,2013-06-22 06:52:00,
2013-06-21 23:57:00,59.7,51.1,30.38,SSE,165,2.0,9.0,73,0.00,,,0.00,meteohub,2013-06-22 06:57:00,